Regional Weather Roundup
Issued by NWS

Home | Current Version | Previous Version | Text Only | Print | Product List | Glossary On
Versions: 1 2 3 4 5 6 7 8 9 10 11 12 13 14 15 16 17 18 19 20 21 22 23 24 25 26 27 28 29 30 31 32 33 34 35 36 37 38 39 40 41 42 43 44 45 46 47 48 49 50
474
ASUS45 KBOU 171810
RWRCO

WEATHER ROUNDUP FOR COLORADO
NATIONAL WEATHER SERVICE PUEBLO CO
1100 AM MST SAT FEB 17 2018

NOTE: "FAIR" INDICATES FEW OR NO CLOUDS BELOW 12000 FEET WITH NO
SIGNIFICANT WEATHER AND/OR OBSTRUCTIONS TO VISIBILITY.

COZ001>005-013-030-031-171900-
...NORTHWEST COLORADO...

CITY           SKY/WX    TMP DP  RH WIND       PRES   REMARKS
CRAIG          SUNNY     26  12  55 SE3       30.21S
HAYDEN         SUNNY     33  13  43 CALM      30.21S
MEEKER         SUNNY     38  14  37 VRB6      30.21F
RABBIT EARS PA NOT AVBL
STEAMBOAT SPGS FAIR      32  11  41 CALM      30.18F
WALDEN         FAIR      30  12  47 SW22G31   30.11S WCI  17
$$

COZ006>008-011-171900-
...WEST CENTRAL VALLEYS...

CITY           SKY/WX    TMP DP  RH WIND       PRES   REMARKS
GRAND JUNCTION SUNNY     39  21  48 CALM      30.26F
MONTROSE       SUNNY     36  21  54 CALM      30.28F
EAGLE          SUNNY     38  13  35 W8        30.23F
RIFLE          SUNNY     30  17  58 SE3       30.26F
DELTA          NOT AVBL
NUCLA          FAIR      37  21  52 CALM      30.29F
$$

COZ017>023-064>068-171900-
...SOUTHWEST COLORADO...

CITY           SKY/WX    TMP DP  RH WIND       PRES   REMARKS
DURANGO        SUNNY     36  22  56 S5        30.24F
CORTEZ         SUNNY     42  16  34 S3        30.25F
PAGOSA SPRINGS FAIR      34  16  48 SW3       30.24F
TELLURIDE      SUNNY     32   5  32 CALM      30.29S
WOLF CREEK PAS   N/A     18  18 100 SW6       30.29R WCI   9
$$

COZ009-010-012-014-032>034-037-058>063-171900-
...CENTRAL COLORADO...

CITY           SKY/WX    TMP DP  RH WIND       PRES   REMARKS
ASPEN          SUNNY     29  14  53 SE3       30.21F
BUENA VISTA    FAIR      40  -2  16 W18G33    30.12R
COPPER MTN     SUNNY     21  -2  35 W20G30    30.14R HAZE    WCI   6
BERTHOUD PASS  FAIR      12   1  62 NW47G58   30.04F WCI -13
COTTONWOOD PAS SUNNY     34   0  23 NW8G29    30.11R WCI  27
GUNNISON       SUNNY     35  10  35 CALM      30.25F
KREMMLING      SUNNY     41  12  30 W18       30.17F
LEADVILLE      SUNNY     26   4  38 N10G20    30.16S WCI  16
MONARCH PASS   SUNNY     16   5  62 W48G58    30.24R WCI  -8
SALIDA         FAIR      44  -2  14 W25G38    30.17F
SUNLIGHT       SUNNY     21  12  68 SW15G25   30.21  WCI   8
WILKERSON PASS SUNNY     27  -9  20 W15G29    30.11R WCI  15
$$

COZ069>075-171900-
...SAN LUIS VALLEY/SANGRE DE CRISTO MOUNTAINS...

CITY           SKY/WX    TMP DP  RH WIND       PRES   REMARKS
ALAMOSA        SUNNY     38  12  34 W5        30.20F
DEL NORTE      FAIR      37  12  36 NE5       30.20F
LA VETA PASS   SUNNY     34  10  37 SW21G38   30.26R WCI  22
SAGUACHE       SUNNY     41   3  20 NW17G24   30.19S
$$

COZ035-036-038>040-171900-
...NORTHERN COLORADO FRONT RANGE...

CITY           SKY/WX    TMP DP  RH WIND       PRES   REMARKS
DENVER INTL AP MOSUNNY   44  10  25 VRB5      30.06R
DMNS CITY PARK NOT AVBL
AURORA         MOSUNNY   45   9  23 SE12      30.06S
FRONT RANGE AP MOSUNNY   45   9  23 E5        30.07S
ERIE MUNI ARPT FAIR      49   9  20 SE9       30.10R
BOULDER MUN AP FAIR      50   9  18 E9G17     30.03S
CENTENNIAL     MOSUNNY   44   8  23 SE8       30.05S
BROOMFIELD     MOSUNNY   46   9  21 SE9       30.05R
LOVELAND       SUNNY     48  10  21 SW8       30.04S
LONGMONT       NOT AVBL
$$

COZ041-046-047-076>085-087-088-171900-
...PIKES PEAK/PALMER DIVIDE AND SOUTHERN FOOTHILLS...

CITY           SKY/WX    TMP DP  RH WIND       PRES   REMARKS
COLO. SPRINGS  MOSUNNY   41  14  33 S16       30.09S
A. F. ACADEMY  SUNNY     43  12  28 S15       30.06S
SCHRIEVER AFB  NOT AVBL
CHEYENNE MTN   NOT AVBL
ELLICOTT         N/A    N/A N/A N/A S14       30.09R
FALCON         FAIR      42   7  23 S12G17    30.10R
FORT CARSON    SUNNY     43  14  31 S17       30.08S
LIMON          SUNNY     42  10  27 VRB5      30.10S
MONUMENT HILL  SUNNY     39  14  35 E9        30.08S
CANON CITY     SUNNY     48  18  29 E15       30.09S
WALSENBURG     FAIR      54   9  16 SW17G28   30.08F
TRINIDAD       SUNNY     48  14  25 SE9       30.12F
$$

COZ042>045-048>051-090-091-171900-
...NORTHEAST COLORADO...

CITY           SKY/WX    TMP DP  RH WIND       PRES   REMARKS
GREELEY ARPT   SUNNY     46   8  21 CALM      30.06F
AKRON          SUNNY     45  12  26 NW35G46   30.08R
BURLINGTON     SUNNY     49   7  18 N24G39    30.11R
WRAY           FAIR      50  12  22 NW20G36   30.11S
YUMA           NOT AVBL
STERLING       FAIR      48   9  20 NW33G44   30.06S
HOLYOKE        FAIR      46  14  27 NW26G33   30.08S
FORT MORGAN    FAIR      47   7  19 NW23G29   30.08F
$$

COZ086-089-092>099-171900-
...SOUTHEAST COLORADO...

CITY           SKY/WX    TMP DP  RH WIND       PRES   REMARKS
PUEBLO         SUNNY     47  17  30 SE13      30.11F
LA JUNTA       SUNNY     48  13  24 E6        30.14S
LAMAR          SUNNY     51  11  20 NE8       30.14R
SPRINGFIELD      N/A     48  10  21 N17       30.14S
$$





USA.gov is the U.S. government's official web portal to all federal, state and local government web resources and services.